SL-14 DEB, 45331

Orbit data source: Space-Track

SL-14 DEB, 45331 is space debris in LEO originally from a launch on Thu, 15 Aug 1991 UTC launched from the Plesetsk Missile And Space Complex (PKMTR). Debris objects in space refer to the collection of defunct objects orbiting the Earth. Examples of debris include non-operational satellites, rocket bodies, and fragments generated from explosions, collisions, or faulty payload assembly.

Loading next visibility...
Identifier
45331, 1991-056BV
Orbit
LEO
Country
Flag of CISCIS
Related business
Manufacturer
Unknown
Mission
Spacecraft
Bus & Motor
Unknown
Mass
Unknown
Launch date (UTC)
1991-08-15 (34 years ago)
Launch vehicle
Unknown
Launch site
Plesetsk Missile And Space Complex (PKMTR)
Object type
Payload
Rocket body
Debris
Shape & HBR
Unknown shape, 0.1 m
Radar Cross Section
Small (<0.1 m²)

Expand to show TLE details & history
Last TLE update: 16 hours ago

TLE from 16 hours ago
0 SL-14 DEB
1 45331U 91056BV  26035.29087169  .00004822  00000-0  16679-1 0  9991
2 45331  82.6678 344.3338 0203844 161.0652 199.8180 12.90453240278255
Epoch: 2026-02-04T06:58Z
TLE epoch observation values (Epoch: 2026-02-04T06:58:51.314Z)
Latitude
-0.00001°
Longitude
105.16042°
Altitude
1,450.123 km
Speed
7.068 km/s
True Right ascension
22h 57m 20s
True Declination
0° 00' 00"
Sunlit
Object was in daylight at epoch
Visualization orbit readout
Latitude
Unknown
Longitude
Unknown
Altitude
Unknown
Speed
Unknown
Apparent Right ascension
Unknown
Apparent Declination
Unknown
Sunlit
N/A
Visualization observer readout
Local Sidereal Time
00:43:32
Azimuth
Unknown
Elevation
Unknown
Doppler factor
Unknown
Orbital elements
Apogee altitude
1,453.454 km
Perigee altitude
1,140.548 km
Semi-major axis
7,675.138 km
Eccentricity
0.02038
Inclination
82.6678°
RAAN
344.3338°
Arg. of periapsis
161.0652°
True anomaly
199.04464°
Mean anomaly
199.818°
Eccentric anomaly
199.42949°
Mean motion
3.22785 °/min
Orbital period
111.53 mins
BSTAR
0.016679
Loading maneuver chart data...
Computing Atmospheric mass density...
Loading historical data...
Loading historical data...
Loading historical data...
Loading historical data...
Loading historical data...
Loading historical data...
Loading historical data...

Documentation

Showing up to 5 results
|